Time,TemperatureF,DewpointF,PressureIn,WindDirection,WindDirectionDegrees,WindSpeedMPH,WindSpeedGustMPH,Humidity,HourlyPrecipIn,Conditions,Clouds,dailyrainin,SolarRadiationWatts/m^2,SoftwareType,DateUTC
2013-09-16 00:01:00,76.8,73.0,30.10,South,169,1.0,16.0,88,0.00,,,0.00,0,Wunderground v.1.15,2013-09-16 04:01:00,
2013-09-16 00:02:00,76.8,73.0,30.10,South,169,2.0,16.0,88,0.00,,,0.00,0,Wunderground v.1.15,2013-09-16 04:02:00,
2013-09-16 00:03:00,76.8,73.3,30.10,South,169,2.0,16.0,89,0.00,,,0.00,0,Wunderground v.1.15,2013-09-16 04:03:00,
2013-09-16 00:04:00,76.8,73.3,30.10,South,169,2.0,16.0,89,0.00,,,0.00,0,Wunderground v.1.15,2013-09-16 04:04:00,
2013-09-16 00:07:00,76.6,73.1,30.10,South,169,2.0,16.0,89,0.00,,,0.00,0,Wunderground v.1.15,2013-09-16 04:07:00,
2013-09-16 00:12:00,76.6,73.1,30.10,South,169,1.0,16.0,89,0.00,,,0.00,0,Wunderground v.1.15,2013-09-16 04:12:00,
2013-09-16 00:18:00,76.4,72.9,30.10,South,169,1.0,16.0,89,0.00,,,0.00,0,Wunderground v.1.15,2013-09-16 04:18:00,
2013-09-16 00:24:00,76.3,73.1,30.10,South,169,0.0,16.0,90,0.00,,,0.00,0,Wunderground v.1.15,2013-09-16 04:24:00,
2013-09-16 00:30:00,76.1,73.0,30.10,SSE,166,2.0,16.0,90,0.00,,,0.00,0,Wunderground v.1.15,2013-09-16 04:30:00,
2013-09-16 00:36:00,76.1,73.0,30.10,SSE,159,3.0,16.0,90,0.00,,,0.00,0,Wunderground v.1.15,2013-09-16 04:36:00,
2013-09-16 00:41:00,76.0,72.9,30.10,SE,138,3.0,16.0,90,0.00,,,0.00,0,Wunderground v.1.15,2013-09-16 04:41:00,
2013-09-16 00:46:00,76.1,73.3,30.10,SE,138,3.0,16.0,91,0.00,,,0.00,0,Wunderground v.1.15,2013-09-16 04:46:00,
2013-09-16 00:52:00,76.1,73.3,30.10,SE,128,3.0,16.0,91,0.00,,,0.00,0,Wunderground v.1.15,2013-09-16 04:52:00,
2013-09-16 00:58:00,76.0,73.2,30.10,ESE,117,3.0,16.0,91,0.00,,,0.00,0,Wunderground v.1.15,2013-09-16 04:58:00,
2013-09-16 01:04:00,75.9,73.1,30.10,ESE,117,2.0,16.0,91,0.00,,,0.00,0,Wunderground v.1.15,2013-09-16 05:04:00,
2013-09-16 01:09:00,75.9,73.1,30.10,ESE,105,3.0,16.0,91,0.00,,,0.00,0,Wunderground v.1.15,2013-09-16 05:09:00,
2013-09-16 01:15:00,75.7,72.9,30.09,East,94,3.0,16.0,91,0.00,,,0.00,0,Wunderground v.1.15,2013-09-16 05:15:00,
2013-09-16 01:20:00,75.6,72.8,30.09,East,92,3.0,16.0,91,0.00,,,0.00,0,Wunderground v.1.15,2013-09-16 05:20:00,
2013-09-16 01:26:00,75.5,72.7,30.09,East,90,3.0,16.0,91,0.00,,,0.00,0,Wunderground v.1.15,2013-09-16 05:26:00,
2013-09-16 01:32:00,75.4,72.6,30.09,ENE,69,4.0,16.0,91,0.00,,,0.00,0,Wunderground v.1.15,2013-09-16 05:32:00,
2013-09-16 01:37:00,75.4,72.6,30.09,ENE,75,4.0,16.0,91,0.00,,,0.00,0,Wunderground v.1.15,2013-09-16 05:37:00,
2013-09-16 01:43:00,75.5,72.7,30.09,ENE,75,2.0,16.0,91,0.00,,,0.00,0,Wunderground v.1.15,2013-09-16 05:43:00,
2013-09-16 01:49:00,75.5,72.7,30.09,ENE,75,2.0,16.0,91,0.00,,,0.00,0,Wunderground v.1.15,2013-09-16 05:49:00,
2013-09-16 01:54:00,75.3,72.2,30.09,ENE,75,2.0,16.0,90,0.00,,,0.00,0,Wunderground v.1.15,2013-09-16 05:54:00,
2013-09-16 02:00:00,75.3,72.2,30.09,ENE,75,2.0,2.0,90,0.00,,,0.00,0,Wunderground v.1.15,2013-09-16 06:00:00,
2013-09-16 02:05:00,75.3,72.5,30.09,ENE,75,1.0,16.0,91,0.00,,,0.00,0,Wunderground v.1.15,2013-09-16 06:05:00,
2013-09-16 02:11:00,75.1,72.3,30.08,ENE,75,1.0,16.0,91,0.00,,,0.00,0,Wunderground v.1.15,2013-09-16 06:11:00,
2013-09-16 02:17:00,75.1,72.3,30.08,ENE,75,0.0,16.0,91,0.00,,,0.00,0,Wunderground v.1.15,2013-09-16 06:17:00,
2013-09-16 02:23:00,75.0,72.2,30.08,ENE,75,0.0,16.0,91,0.00,,,0.00,0,Wunderground v.1.15,2013-09-16 06:23:00,
2013-09-16 02:28:00,75.0,72.2,30.08,ENE,75,0.0,16.0,91,0.00,,,0.00,0,Wunderground v.1.15,2013-09-16 06:28:00,
2013-09-16 02:34:00,75.2,72.7,30.08,ENE,75,0.0,16.0,92,0.00,,,0.00,0,Wunderground v.1.15,2013-09-16 06:34:00,
2013-09-16 02:40:00,74.9,72.1,30.08,ENE,75,0.0,16.0,91,0.00,,,0.00,0,Wunderground v.1.15,2013-09-16 06:40:00,
2013-09-16 02:46:00,74.7,71.9,30.08,ENE,75,0.0,16.0,91,0.00,,,0.00,0,Wunderground v.1.15,2013-09-16 06:46:00,
2013-09-16 02:52:00,74.5,71.7,30.08,ENE,75,0.0,16.0,91,0.00,,,0.00,0,Wunderground v.1.15,2013-09-16 06:52:00,
2013-09-16 02:58:00,74.5,72.0,30.08,ENE,75,1.0,16.0,92,0.00,,,0.00,0,Wunderground v.1.15,2013-09-16 06:58:00,
2013-09-16 03:04:00,74.4,71.9,30.08,ENE,75,1.0,16.0,92,0.00,,,0.00,0,Wunderground v.1.15,2013-09-16 07:04:00,
2013-09-16 03:10:00,74.4,71.9,30.07,ENE,75,0.0,16.0,92,0.00,,,0.00,0,Wunderground v.1.15,2013-09-16 07:10:00,
2013-09-16 03:15:00,75.6,73.8,30.07,ESE,115,2.0,16.0,94,0.00,,,0.00,0,Wunderground v.1.15,2013-09-16 07:15:00,
2013-09-16 03:21:00,75.8,73.6,30.07,ESE,115,3.0,16.0,93,0.00,,,0.00,0,Wunderground v.1.15,2013-09-16 07:21:00,
2013-09-16 03:27:00,75.7,72.9,30.06,ESE,115,1.0,16.0,91,0.00,,,0.00,0,Wunderground v.1.15,2013-09-16 07:27:00,
2013-09-16 03:33:00,75.4,72.6,30.07,ESE,115,1.0,16.0,91,0.00,,,0.00,0,Wunderground v.1.15,2013-09-16 07:33:00,
2013-09-16 03:38:00,75.3,72.8,30.06,ESE,115,2.0,16.0,92,0.00,,,0.00,0,Wunderground v.1.15,2013-09-16 07:38:00,
2013-09-16 03:44:00,75.3,72.8,30.06,ESE,115,3.0,16.0,92,0.00,,,0.00,0,Wunderground v.1.15,2013-09-16 07:44:00,
2013-09-16 03:50:00,75.8,73.6,30.06,ESE,115,3.0,16.0,93,0.00,,,0.00,0,Wunderground v.1.15,2013-09-16 07:50:00,
2013-09-16 03:56:00,76.2,73.7,30.06,ESE,115,4.0,16.0,92,0.00,,,0.00,0,Wunderground v.1.15,2013-09-16 07:56:00,
2013-09-16 04:02:00,76.4,73.9,30.06,ESE,119,4.0,16.0,92,0.00,,,0.00,0,Wunderground v.1.15,2013-09-16 08:02:00,
2013-09-16 04:08:00,76.4,73.9,30.06,ESE,120,3.0,16.0,92,0.00,,,0.00,0,Wunderground v.1.15,2013-09-16 08:08:00,
2013-09-16 04:14:00,76.4,73.9,30.06,ESE,120,2.0,16.0,92,0.00,,,0.00,0,Wunderground v.1.15,2013-09-16 08:14:00,
2013-09-16 04:20:00,75.9,73.1,30.06,ESE,120,1.0,1.0,91,0.00,,,0.00,0,Wunderground v.1.15,2013-09-16 08:20:00,
2013-09-16 04:25:00,75.3,72.5,30.06,ESE,120,1.0,16.0,91,0.00,,,0.00,0,Wunderground v.1.15,2013-09-16 08:25:00,
2013-09-16 04:31:00,74.8,72.3,30.06,ESE,120,3.0,16.0,92,0.00,,,0.00,0,Wunderground v.1.15,2013-09-16 08:31:00,
2013-09-16 04:37:00,74.5,72.0,30.06,ESE,120,3.0,16.0,92,0.00,,,0.00,0,Wunderground v.1.15,2013-09-16 08:37:00,
2013-09-16 04:43:00,74.4,72.2,30.06,ESE,120,3.0,16.0,93,0.00,,,0.00,0,Wunderground v.1.15,2013-09-16 08:43:00,
2013-09-16 04:49:00,74.2,72.0,30.06,ESE,120,2.0,16.0,93,0.00,,,0.00,0,Wunderground v.1.15,2013-09-16 08:49:00,
2013-09-16 04:55:00,74.1,71.9,30.06,ESE,120,2.0,16.0,93,0.00,,,0.00,0,Wunderground v.1.15,2013-09-16 08:55:00,
2013-09-16 05:01:00,74.0,71.8,30.06,ESE,120,1.0,16.0,93,0.00,,,0.00,0,Wunderground v.1.15,2013-09-16 09:01:00,
2013-09-16 05:07:00,74.0,72.2,30.06,ESE,120,1.0,16.0,94,0.00,,,0.00,0,Wunderground v.1.15,2013-09-16 09:07:00,
2013-09-16 05:12:00,73.9,72.1,30.06,ESE,120,2.0,16.0,94,0.00,,,0.00,0,Wunderground v.1.15,2013-09-16 09:12:00,
2013-09-16 05:18:00,74.0,72.2,30.07,ESE,109,3.0,16.0,94,0.00,,,0.00,0,Wunderground v.1.15,2013-09-16 09:18:00,
2013-09-16 05:24:00,74.1,72.3,30.06,ESE,106,3.0,16.0,94,0.00,,,0.00,0,Wunderground v.1.15,2013-09-16 09:24:00,
2013-09-16 05:30:00,74.2,72.7,30.06,ESE,106,2.0,2.0,95,0.00,,,0.00,0,Wunderground v.1.15,2013-09-16 09:30:00,
2013-09-16 05:36:00,74.2,72.4,30.07,ESE,106,1.0,16.0,94,0.00,,,0.00,0,Wunderground v.1.15,2013-09-16 09:36:00,
2013-09-16 05:42:00,74.2,72.4,30.07,ESE,106,1.0,16.0,94,0.00,,,0.00,0,Wunderground v.1.15,2013-09-16 09:42:00,
2013-09-16 05:48:00,74.2,72.4,30.07,ESE,106,1.0,16.0,94,0.00,,,0.00,0,Wunderground v.1.15,2013-09-16 09:48:00,
2013-09-16 05:53:00,74.0,72.2,30.08,ESE,106,2.0,16.0,94,0.00,,,0.00,0,Wunderground v.1.15,2013-09-16 09:53:00,
2013-09-16 05:59:00,73.9,72.1,30.08,ESE,106,1.0,16.0,94,0.00,,,0.00,0,Wunderground v.1.15,2013-09-16 09:59:00,
2013-09-16 06:04:00,73.8,72.0,30.08,ESE,106,0.0,16.0,94,0.00,,,0.00,0,Wunderground v.1.15,2013-09-16 10:04:00,
2013-09-16 06:10:00,73.7,71.9,30.08,ESE,106,1.0,16.0,94,0.00,,,0.00,0,Wunderground v.1.15,2013-09-16 10:10:00,
2013-09-16 06:15:00,73.7,71.9,30.08,ESE,106,1.0,16.0,94,0.00,,,0.00,0,Wunderground v.1.15,2013-09-16 10:15:00,
2013-09-16 06:21:00,73.7,72.2,30.08,ESE,105,2.0,16.0,95,0.00,,,0.00,0,Wunderground v.1.15,2013-09-16 10:21:00,
2013-09-16 06:27:00,73.8,72.3,30.08,ENE,77,4.0,16.0,95,0.00,,,0.00,0,Wunderground v.1.15,2013-09-16 10:27:00,
2013-09-16 06:33:00,74.0,72.5,30.08,ENE,75,4.0,16.0,95,0.00,,,0.00,0,Wunderground v.1.15,2013-09-16 10:33:00,
2013-09-16 06:38:00,74.2,72.7,30.08,ENE,71,4.0,16.0,95,0.00,,,0.00,0,Wunderground v.1.15,2013-09-16 10:38:00,
2013-09-16 06:44:00,74.2,72.7,30.08,ENE,71,3.0,16.0,95,0.00,,,0.00,0,Wunderground v.1.15,2013-09-16 10:44:00,
2013-09-16 06:50:00,74.2,72.7,30.08,ENE,71,2.0,16.0,95,0.00,,,0.00,0,Wunderground v.1.15,2013-09-16 10:50:00,
2013-09-16 06:56:00,74.2,72.7,30.09,ENE,71,1.0,16.0,95,0.00,,,0.00,0,Wunderground v.1.15,2013-09-16 10:56:00,
2013-09-16 07:02:00,74.2,72.7,30.09,ENE,71,2.0,16.0,95,0.00,,,0.00,0,Wunderground v.1.15,2013-09-16 11:02:00,
2013-09-16 07:08:00,74.2,72.7,30.09,ENE,71,2.0,16.0,95,0.00,,,0.00,0,Wunderground v.1.15,2013-09-16 11:08:00,
2013-09-16 07:14:00,74.2,72.7,30.09,ENE,71,2.0,16.0,95,0.00,,,0.00,0,Wunderground v.1.15,2013-09-16 11:14:00,
2013-09-16 07:19:00,74.2,72.7,30.09,ENE,71,3.0,16.0,95,0.00,,,0.00,7,Wunderground v.1.15,2013-09-16 11:19:00,
2013-09-16 07:25:00,74.3,72.8,30.10,NE,56,2.0,16.0,95,0.00,,,0.00,12,Wunderground v.1.15,2013-09-16 11:25:00,
2013-09-16 07:31:00,74.4,72.9,30.10,ENE,66,3.0,16.0,95,0.00,,,0.00,14,Wunderground v.1.15,2013-09-16 11:31:00,
2013-09-16 07:37:00,74.5,73.0,30.10,ENE,66,3.0,16.0,95,0.00,,,0.00,19,Wunderground v.1.15,2013-09-16 11:37:00,
2013-09-16 07:43:00,74.6,73.1,30.10,ENE,66,3.0,16.0,95,0.00,,,0.00,25,Wunderground v.1.15,2013-09-16 11:43:00,
2013-09-16 07:48:00,74.8,73.3,30.10,ENE,66,2.0,16.0,95,0.00,,,0.00,33,Wunderground v.1.15,2013-09-16 11:48:00,
2013-09-16 07:54:00,74.9,73.4,30.11,ENE,66,2.0,16.0,95,0.00,,,0.00,65,Wunderground v.1.15,2013-09-16 11:54:00,
2013-09-16 08:00:00,75.4,74.2,30.11,ENE,66,1.0,16.0,96,0.00,,,0.00,91,Wunderground v.1.15,2013-09-16 12:00:00,
2013-09-16 08:06:00,76.0,74.5,30.11,ENE,66,1.0,16.0,95,0.00,,,0.00,113,Wunderground v.1.15,2013-09-16 12:06:00,
2013-09-16 08:12:00,76.6,75.1,30.11,ENE,66,1.0,16.0,95,0.00,,,0.00,153,Wunderground v.1.15,2013-09-16 12:12:00,
2013-09-16 08:18:00,77.2,75.3,30.11,ENE,66,1.0,16.0,94,0.00,,,0.00,181,Wunderground v.1.15,2013-09-16 12:18:00,
2013-09-16 08:23:00,77.7,75.5,30.11,ENE,66,2.0,16.0,93,0.00,,,0.00,204,Wunderground v.1.15,2013-09-16 12:23:00,
2013-09-16 08:29:00,78.2,75.7,30.11,ENE,66,1.0,16.0,92,0.00,,,0.00,229,Wunderground v.1.15,2013-09-16 12:29:00,
2013-09-16 08:35:00,78.7,75.8,30.11,ENE,66,2.0,16.0,91,0.00,,,0.00,253,Wunderground v.1.15,2013-09-16 12:35:00,
2013-09-16 08:41:00,79.2,76.0,30.11,ENE,66,2.0,16.0,90,0.00,,,0.00,276,Wunderground v.1.15,2013-09-16 12:41:00,
2013-09-16 08:46:00,79.7,76.2,30.11,ENE,66,2.0,16.0,89,0.00,,,0.00,294,Wunderground v.1.15,2013-09-16 12:46:00,
2013-09-16 08:52:00,80.5,76.6,30.11,ENE,66,2.0,16.0,88,0.00,,,0.00,313,Wunderground v.1.15,2013-09-16 12:52:00,
2013-09-16 08:58:00,81.1,76.9,30.11,ENE,66,2.0,16.0,87,0.00,,,0.00,330,Wunderground v.1.15,2013-09-16 12:58:00,
2013-09-16 09:04:00,81.7,77.1,30.11,ENE,66,2.0,16.0,86,0.00,,,0.00,348,Wunderground v.1.15,2013-09-16 13:04:00,
2013-09-16 09:10:00,82.2,77.2,30.11,ENE,66,3.0,3.0,85,0.00,,,0.00,364,Wunderground v.1.15,2013-09-16 13:10:00,
2013-09-16 09:16:00,82.5,77.2,30.11,ENE,66,3.0,16.0,84,0.00,,,0.00,378,Wunderground v.1.15,2013-09-16 13:16:00,
2013-09-16 09:22:00,82.7,77.0,30.11,ENE,66,3.0,16.0,83,0.00,,,0.00,399,Wunderground v.1.15,2013-09-16 13:22:00,
2013-09-16 09:28:00,83.0,77.3,30.11,ENE,66,4.0,16.0,83,0.00,,,0.00,417,Wunderground v.1.15,2013-09-16 13:28:00,
2013-09-16 09:33:00,83.3,77.2,30.11,ENE,76,4.0,16.0,82,0.00,,,0.00,432,Wunderground v.1.15,2013-09-16 13:33:00,
2013-09-16 09:39:00,83.3,76.9,30.11,East,89,4.0,16.0,81,0.00,,,0.00,459,Wunderground v.1.15,2013-09-16 13:39:00,
2013-09-16 09:45:00,83.5,77.1,30.11,ENE,64,5.0,16.0,81,0.00,,,0.00,471,Wunderground v.1.15,2013-09-16 13:45:00,
2013-09-16 09:51:00,83.7,76.9,30.11,ENE,73,5.0,16.0,80,0.00,,,0.00,497,Wunderground v.1.15,2013-09-16 13:51:00,
2013-09-16 09:57:00,83.9,77.1,30.11,ENE,74,5.0,16.0,80,0.00,,,0.00,519,Wunderground v.1.15,2013-09-16 13:57:00,
2013-09-16 10:03:00,84.2,77.4,30.11,ENE,68,5.0,16.0,80,0.00,,,0.00,541,Wunderground v.1.15,2013-09-16 14:03:00,
2013-09-16 10:09:00,84.3,76.7,30.11,East,86,6.0,16.0,78,0.00,,,0.00,526,Wunderground v.1.15,2013-09-16 14:09:00,
2013-09-16 10:15:00,84.4,77.2,30.11,ENE,58,5.0,16.0,79,0.00,,,0.00,577,Wunderground v.1.15,2013-09-16 14:15:00,
2013-09-16 10:20:00,84.8,77.2,30.10,ENE,68,4.0,16.0,78,0.00,,,0.00,599,Wunderground v.1.15,2013-09-16 14:20:00,
2013-09-16 10:26:00,84.9,76.5,30.10,ENE,68,4.0,16.0,76,0.00,,,0.00,499,Wunderground v.1.15,2013-09-16 14:26:00,
2013-09-16 10:32:00,84.8,76.4,30.10,ENE,70,5.0,16.0,76,0.00,,,0.00,390,Wunderground v.1.15,2013-09-16 14:32:00,
2013-09-16 10:38:00,84.9,76.5,30.10,East,83,5.0,16.0,76,0.00,,,0.00,591,Wunderground v.1.15,2013-09-16 14:38:00,
2013-09-16 10:44:00,85.4,77.0,30.10,ESE,109,6.0,16.0,76,0.00,,,0.00,657,Wunderground v.1.15,2013-09-16 14:44:00,
2013-09-16 10:50:00,85.9,77.1,30.10,ENE,66,6.0,6.0,75,0.00,,,0.00,696,Wunderground v.1.15,2013-09-16 14:50:00,
2013-09-16 10:56:00,86.1,76.4,30.10,ENE,68,6.0,16.0,73,0.00,,,0.00,462,Wunderground v.1.15,2013-09-16 14:56:00,
2013-09-16 11:01:00,86.1,76.8,30.11,East,83,5.0,8.0,74,0.00,,,0.00,686,Wunderground v.1.15,2013-09-16 15:01:00,
2013-09-16 11:07:00,86.0,76.7,30.10,East,86,5.0,16.0,74,0.00,,,0.00,847,Wunderground v.1.15,2013-09-16 15:07:00,
2013-09-16 11:13:00,86.2,76.1,30.10,East,87,4.0,16.0,72,0.00,,,0.00,220,Wunderground v.1.15,2013-09-16 15:13:00,
2013-09-16 11:19:00,86.5,77.2,30.11,ESE,117,5.0,16.0,74,0.00,,,0.00,846,Wunderground v.1.15,2013-09-16 15:19:00,
2013-09-16 11:25:00,87.0,76.9,30.11,SE,138,5.0,16.0,72,0.00,,,0.00,900,Wunderground v.1.15,2013-09-16 15:25:00,
2013-09-16 11:31:00,87.5,76.5,30.10,SE,146,6.0,16.0,70,0.00,,,0.00,918,Wunderground v.1.15,2013-09-16 15:31:00,
2013-09-16 11:37:00,87.0,76.9,30.10,SSE,151,7.0,16.0,72,0.00,,,0.00,902,Wunderground v.1.15,2013-09-16 15:37:00,
2013-09-16 11:43:00,86.6,76.5,30.10,SE,133,7.0,16.0,72,0.00,,,0.00,893,Wunderground v.1.15,2013-09-16 15:43:00,
2013-09-16 11:48:00,87.1,77.0,30.10,ENE,67,6.0,16.0,72,0.00,,,0.00,872,Wunderground v.1.15,2013-09-16 15:48:00,
2013-09-16 11:54:00,87.6,76.6,30.10,ENE,69,6.0,16.0,70,0.00,,,0.00,926,Wunderground v.1.15,2013-09-16 15:54:00,
2013-09-16 12:00:00,87.7,76.7,30.10,East,88,5.0,5.0,70,0.00,,,0.00,932,Wunderground v.1.15,2013-09-16 16:00:00,
2013-09-16 12:06:00,87.8,75.9,30.10,East,88,5.0,16.0,68,0.00,,,0.00,937,Wunderground v.1.15,2013-09-16 16:06:00,
2013-09-16 12:11:00,88.0,75.7,30.10,ENE,77,6.0,16.0,67,0.00,,,0.00,246,Wunderground v.1.15,2013-09-16 16:11:00,
2013-09-16 12:17:00,87.5,75.6,30.09,ENE,70,6.0,16.0,68,0.00,,,0.00,232,Wunderground v.1.15,2013-09-16 16:17:00,
2013-09-16 12:23:00,87.9,77.3,30.09,ENE,59,6.0,16.0,71,0.00,,,0.00,1023,Wunderground v.1.15,2013-09-16 16:23:00,
2013-09-16 12:29:00,88.7,76.8,30.09,ENE,74,7.0,16.0,68,0.00,,,0.00,940,Wunderground v.1.15,2013-09-16 16:29:00,
2013-09-16 12:34:00,88.9,76.5,30.09,ESE,105,7.0,16.0,67,0.00,,,0.00,824,Wunderground v.1.15,2013-09-16 16:34:00,
2013-09-16 12:40:00,88.7,76.8,30.09,ESE,107,6.0,16.0,68,0.00,,,0.00,1000,Wunderground v.1.15,2013-09-16 16:40:00,
2013-09-16 12:46:00,88.7,75.9,30.08,East,84,7.0,16.0,66,0.00,,,0.00,202,Wunderground v.1.15,2013-09-16 16:46:00,
2013-09-16 12:52:00,89.1,76.3,30.08,East,80,6.0,16.0,66,0.00,,,0.00,988,Wunderground v.1.15,2013-09-16 16:52:00,
2013-09-16 12:57:00,89.2,76.8,30.08,ESE,113,6.0,16.0,67,0.00,,,0.00,976,Wunderground v.1.15,2013-09-16 16:57:00,
2013-09-16 13:02:00,89.1,75.3,30.08,ENE,76,7.0,11.0,64,0.00,,,0.00,967,Wunderground v.1.15,2013-09-16 17:02:00,
2013-09-16 13:08:00,89.1,75.3,30.07,ESE,111,7.0,16.0,64,0.00,,,0.00,970,Wunderground v.1.15,2013-09-16 17:08:00,
2013-09-16 13:14:00,89.3,75.5,30.07,ENE,68,7.0,16.0,64,0.00,,,0.00,997,Wunderground v.1.15,2013-09-16 17:14:00,
2013-09-16 13:20:00,89.6,76.3,30.07,ESE,105,7.0,7.0,65,0.00,,,0.00,1009,Wunderground v.1.15,2013-09-16 17:20:00,
2013-09-16 13:25:00,89.8,75.5,30.07,East,80,6.0,16.0,63,0.00,,,0.00,1018,Wunderground v.1.15,2013-09-16 17:25:00,
2013-09-16 13:31:00,89.8,76.5,30.06,ESE,112,5.0,6.0,65,0.00,,,0.00,1095,Wunderground v.1.15,2013-09-16 17:31:00,
2013-09-16 13:37:00,89.7,76.4,30.06,ENE,66,5.0,16.0,65,0.00,,,0.00,1063,Wunderground v.1.15,2013-09-16 17:37:00,
2013-09-16 13:43:00,90.2,75.9,30.06,SSE,158,5.0,16.0,63,0.00,,,0.00,1079,Wunderground v.1.15,2013-09-16 17:43:00,
2013-09-16 13:48:00,90.3,76.0,30.06,SW,217,5.0,16.0,63,0.00,,,0.00,183,Wunderground v.1.15,2013-09-16 17:48:00,
2013-09-16 13:53:00,90.0,75.2,30.06,East,99,6.0,16.0,62,0.00,,,0.00,998,Wunderground v.1.15,2013-09-16 17:53:00,
2013-09-16 13:59:00,90.3,76.0,30.05,SE,124,7.0,16.0,63,0.00,,,0.00,1048,Wunderground v.1.15,2013-09-16 17:59:00,
2013-09-16 14:05:00,90.4,76.1,30.05,ENE,69,6.0,16.0,63,0.00,,,0.00,290,Wunderground v.1.15,2013-09-16 18:05:00,
2013-09-16 14:11:00,90.0,75.7,30.05,East,92,6.0,16.0,63,0.00,,,0.00,162,Wunderground v.1.15,2013-09-16 18:11:00,
2013-09-16 14:16:00,90.0,76.2,30.05,ENE,67,5.0,16.0,64,0.00,,,0.00,946,Wunderground v.1.15,2013-09-16 18:16:00,
2013-09-16 14:22:00,90.4,76.1,30.05,East,85,7.0,16.0,63,0.00,,,0.00,998,Wunderground v.1.15,2013-09-16 18:22:00,
2013-09-16 14:28:00,90.8,75.0,30.05,East,92,7.0,16.0,60,0.00,,,0.00,1004,Wunderground v.1.15,2013-09-16 18:28:00,
2013-09-16 14:33:00,91.0,75.2,30.05,ESE,120,5.0,16.0,60,0.00,,,0.00,1009,Wunderground v.1.15,2013-09-16 18:33:00,
2013-09-16 14:39:00,91.0,75.2,30.05,East,99,6.0,16.0,60,0.00,,,0.00,1058,Wunderground v.1.15,2013-09-16 18:39:00,
2013-09-16 14:45:00,90.9,76.1,30.05,ESE,102,7.0,16.0,62,0.00,,,0.00,1016,Wunderground v.1.15,2013-09-16 18:45:00,
2013-09-16 14:51:00,91.1,75.8,30.05,ESE,102,5.0,16.0,61,0.00,,,0.00,246,Wunderground v.1.15,2013-09-16 18:51:00,
2013-09-16 14:56:00,90.6,75.8,30.05,SE,138,6.0,16.0,62,0.00,,,0.00,279,Wunderground v.1.15,2013-09-16 18:56:00,
2013-09-16 15:01:00,90.3,75.0,30.04,ENE,76,7.0,16.0,61,0.00,,,0.00,279,Wunderground v.1.15,2013-09-16 19:01:00,
2013-09-16 15:07:00,90.5,75.7,30.04,East,94,6.0,16.0,62,0.00,,,0.00,257,Wunderground v.1.15,2013-09-16 19:07:00,
2013-09-16 15:13:00,90.0,74.7,30.04,ESE,115,5.0,16.0,61,0.00,,,0.00,1051,Wunderground v.1.15,2013-09-16 19:13:00,
2013-09-16 15:19:00,89.9,75.1,30.04,East,94,8.0,16.0,62,0.00,,,0.00,1044,Wunderground v.1.15,2013-09-16 19:19:00,
2013-09-16 15:24:00,89.9,75.1,30.04,ESE,111,9.0,16.0,62,0.00,,,0.00,260,Wunderground v.1.15,2013-09-16 19:24:00,
2013-09-16 15:30:00,89.5,75.2,30.04,SE,128,9.0,9.0,63,0.00,,,0.00,274,Wunderground v.1.15,2013-09-16 19:30:00,
2013-09-16 15:36:00,89.3,75.5,30.03,SE,128,9.0,16.0,64,0.00,,,0.00,802,Wunderground v.1.15,2013-09-16 19:36:00,
2013-09-16 15:42:00,89.5,75.7,30.03,SE,142,9.0,16.0,64,0.00,,,0.00,946,Wunderground v.1.15,2013-09-16 19:42:00,
2013-09-16 15:47:00,89.6,75.8,30.03,East,100,9.0,16.0,64,0.00,,,0.00,192,Wunderground v.1.15,2013-09-16 19:47:00,
2013-09-16 15:53:00,89.7,75.9,30.03,ESE,117,8.0,16.0,64,0.00,,,0.00,163,Wunderground v.1.15,2013-09-16 19:53:00,
2013-09-16 15:59:00,89.2,75.0,30.03,East,94,8.0,16.0,63,0.00,,,0.00,146,Wunderground v.1.15,2013-09-16 19:59:00,
2013-09-16 16:05:00,88.4,74.7,30.03,SE,128,9.0,16.0,64,0.00,,,0.00,181,Wunderground v.1.15,2013-09-16 20:05:00,
2013-09-16 16:11:00,87.7,75.8,30.03,SE,142,9.0,16.0,68,0.00,,,0.00,853,Wunderground v.1.15,2013-09-16 20:11:00,
2013-09-16 16:17:00,87.8,75.9,30.02,ESE,110,9.0,16.0,68,0.00,,,0.00,844,Wunderground v.1.15,2013-09-16 20:17:00,
2013-09-16 16:23:00,88.3,75.9,30.02,SSE,151,9.0,16.0,67,0.00,,,0.00,828,Wunderground v.1.15,2013-09-16 20:23:00,
2013-09-16 16:29:00,88.6,75.8,30.03,SE,138,9.0,16.0,66,0.00,,,0.00,218,Wunderground v.1.15,2013-09-16 20:29:00,
2013-09-16 16:34:00,88.2,74.9,30.03,ESE,122,10.0,16.0,65,0.00,,,0.00,155,Wunderground v.1.15,2013-09-16 20:34:00,
2013-09-16 16:40:00,87.2,74.9,30.03,SSE,152,10.0,10.0,67,0.00,,,0.00,130,Wunderground v.1.15,2013-09-16 20:40:00,
2013-09-16 16:46:00,86.2,74.4,30.03,SSE,155,11.0,16.0,68,0.00,,,0.00,156,Wunderground v.1.15,2013-09-16 20:46:00,
2013-09-16 16:52:00,85.6,75.1,30.03,SSE,154,10.0,16.0,71,0.00,,,0.00,279,Wunderground v.1.15,2013-09-16 20:52:00,
2013-09-16 16:57:00,85.6,75.5,30.03,SE,138,9.0,16.0,72,0.00,,,0.00,694,Wunderground v.1.15,2013-09-16 20:57:00,
2013-09-16 17:03:00,86.3,77.0,30.03,ENE,68,9.0,16.0,74,0.00,,,0.00,508,Wunderground v.1.15,2013-09-16 21:03:00,
2013-09-16 17:09:00,84.9,76.5,30.03,East,82,9.0,16.0,76,0.00,,,0.01,334,Wunderground v.1.15,2013-09-16 21:09:00,
2013-09-16 17:15:00,84.2,76.2,30.03,ENE,67,5.0,16.0,77,0.00,,,0.01,139,Wunderground v.1.15,2013-09-16 21:15:00,
2013-09-16 17:21:00,83.6,76.0,30.03,SSE,153,6.0,16.0,78,0.00,,,0.01,111,Wunderground v.1.15,2013-09-16 21:21:00,
2013-09-16 17:27:00,83.8,75.4,30.03,SE,138,9.0,17.0,76,0.00,,,0.01,148,Wunderground v.1.15,2013-09-16 21:27:00,
2013-09-16 17:33:00,84.0,74.8,30.03,SSE,160,12.0,16.0,74,0.00,,,0.01,311,Wunderground v.1.15,2013-09-16 21:33:00,
2013-09-16 17:38:00,84.3,75.1,30.03,ESE,121,11.0,16.0,74,0.00,,,0.01,183,Wunderground v.1.15,2013-09-16 21:38:00,
2013-09-16 17:44:00,84.4,75.2,30.03,SE,146,9.0,16.0,74,0.00,,,0.01,390,Wunderground v.1.15,2013-09-16 21:44:00,
2013-09-16 17:50:00,84.4,76.0,30.03,SSE,157,9.0,16.0,76,0.00,,,0.01,269,Wunderground v.1.15,2013-09-16 21:50:00,
2013-09-16 17:56:00,83.8,76.6,30.03,SSE,148,9.0,16.0,79,0.00,,,0.01,206,Wunderground v.1.15,2013-09-16 21:56:00,
2013-09-16 18:01:00,83.6,76.4,30.04,SSE,166,9.0,16.0,79,0.00,,,0.01,171,Wunderground v.1.15,2013-09-16 22:01:00,
2013-09-16 18:07:00,83.3,77.2,30.03,South,171,11.0,16.0,82,0.00,,,0.01,148,Wunderground v.1.15,2013-09-16 22:07:00,
2013-09-16 18:13:00,83.0,76.9,30.04,ESE,115,10.0,16.0,82,0.00,,,0.01,127,Wunderground v.1.15,2013-09-16 22:13:00,
2013-09-16 18:19:00,82.8,76.4,30.04,SSE,147,8.0,16.0,81,0.00,,,0.01,109,Wunderground v.1.15,2013-09-16 22:19:00,
2013-09-16 18:25:00,82.6,76.2,30.04,SE,138,8.0,16.0,81,0.00,,,0.01,98,Wunderground v.1.15,2013-09-16 22:25:00,
2013-09-16 18:30:00,82.5,76.1,30.04,SE,138,8.0,8.0,81,0.00,,,0.01,88,Wunderground v.1.15,2013-09-16 22:30:00,
2013-09-16 18:36:00,82.2,75.4,30.04,SE,138,7.0,16.0,80,0.00,,,0.01,76,Wunderground v.1.15,2013-09-16 22:36:00,
2013-09-16 18:42:00,82.0,75.6,30.05,SE,138,7.0,16.0,81,0.00,,,0.01,63,Wunderground v.1.15,2013-09-16 22:42:00,
2013-09-16 18:48:00,81.7,74.9,30.05,SE,142,6.0,16.0,80,0.00,,,0.01,53,Wunderground v.1.15,2013-09-16 22:48:00,
2013-09-16 18:53:00,81.6,75.2,30.04,SE,144,5.0,16.0,81,0.00,,,0.01,44,Wunderground v.1.15,2013-09-16 22:53:00,
2013-09-16 18:59:00,81.4,75.0,30.04,SE,142,5.0,16.0,81,0.00,,,0.01,35,Wunderground v.1.15,2013-09-16 22:59:00,
2013-09-16 19:05:00,81.2,74.8,30.04,SE,138,5.0,16.0,81,0.00,,,0.01,26,Wunderground v.1.15,2013-09-16 23:05:00,
2013-09-16 19:11:00,81.0,75.0,30.04,SE,138,6.0,16.0,82,0.00,,,0.01,19,Wunderground v.1.15,2013-09-16 23:11:00,
2013-09-16 19:17:00,80.8,74.8,30.04,SE,138,6.0,16.0,82,0.00,,,0.01,18,Wunderground v.1.15,2013-09-16 23:17:00,
2013-09-16 19:23:00,80.7,75.1,30.04,SE,138,5.0,16.0,83,0.00,,,0.01,5,Wunderground v.1.15,2013-09-16 23:23:00,
2013-09-16 19:29:00,80.5,74.5,30.04,SE,138,4.0,16.0,82,0.00,,,0.01,0,Wunderground v.1.15,2013-09-16 23:29:00,
2013-09-16 19:34:00,80.3,74.3,30.04,SE,128,2.0,16.0,82,0.00,,,0.01,0,Wunderground v.1.15,2013-09-16 23:34:00,
2013-09-16 19:40:00,80.2,74.6,30.04,SE,128,3.0,16.0,83,0.00,,,0.01,0,Wunderground v.1.15,2013-09-16 23:40:00,
2013-09-16 19:46:00,80.1,74.8,30.04,SE,138,3.0,16.0,84,0.00,,,0.01,0,Wunderground v.1.15,2013-09-16 23:46:00,
2013-09-16 19:52:00,80.0,74.7,30.04,SE,144,3.0,16.0,84,0.00,,,0.01,0,Wunderground v.1.15,2013-09-16 23:52:00,
2013-09-16 19:58:00,79.9,74.6,30.04,SE,133,2.0,16.0,84,0.00,,,0.01,0,Wunderground v.1.15,2013-09-16 23:58:00,
2013-09-16 20:03:00,79.8,74.5,30.04,SE,133,2.0,16.0,84,0.00,,,0.01,0,Wunderground v.1.15,2013-09-17 00:03:00,
2013-09-16 20:09:00,79.7,74.4,30.04,SE,133,1.0,16.0,84,0.00,,,0.01,0,Wunderground v.1.15,2013-09-17 00:09:00,
2013-09-16 20:14:00,79.6,74.3,30.04,SE,133,1.0,16.0,84,0.00,,,0.01,0,Wunderground v.1.15,2013-09-17 00:14:00,
2013-09-16 20:20:00,79.6,74.7,30.04,SE,133,1.0,1.0,85,0.00,,,0.01,0,Wunderground v.1.15,2013-09-17 00:20:00,
2013-09-16 20:26:00,79.4,74.5,30.04,SE,133,1.0,16.0,85,0.00,,,0.01,0,Wunderground v.1.15,2013-09-17 00:26:00,
2013-09-16 20:32:00,79.3,74.4,30.04,SE,133,0.0,16.0,85,0.00,,,0.01,0,Wunderground v.1.15,2013-09-17 00:32:00,
2013-09-16 20:38:00,79.3,74.7,30.04,SE,133,1.0,16.0,86,0.00,,,0.01,0,Wunderground v.1.15,2013-09-17 00:38:00,
2013-09-16 20:44:00,79.2,74.6,30.04,SE,133,1.0,16.0,86,0.00,,,0.01,0,Wunderground v.1.15,2013-09-17 00:44:00,
2013-09-16 20:50:00,79.1,74.5,30.04,SE,133,2.0,2.0,86,0.00,,,0.01,0,Wunderground v.1.15,2013-09-17 00:50:00,
2013-09-16 20:55:00,78.9,74.4,30.04,SE,133,2.0,16.0,86,0.00,,,0.01,0,Wunderground v.1.15,2013-09-17 00:55:00,
2013-09-16 21:01:00,78.8,74.3,30.05,SE,133,1.0,16.0,86,0.00,,,0.01,0,Wunderground v.1.15,2013-09-17 01:01:00,
2013-09-16 21:07:00,78.8,74.6,30.06,SE,133,2.0,16.0,87,0.00,,,0.01,0,Wunderground v.1.15,2013-09-17 01:07:00,
2013-09-16 21:13:00,78.7,74.5,30.06,SE,133,2.0,16.0,87,0.00,,,0.01,0,Wunderground v.1.15,2013-09-17 01:13:00,
2013-09-16 21:18:00,78.7,74.5,30.06,ESE,123,2.0,16.0,87,0.00,,,0.01,0,Wunderground v.1.15,2013-09-17 01:18:00,
2013-09-16 21:24:00,78.6,74.4,30.06,SE,128,2.0,16.0,87,0.00,,,0.01,0,Wunderground v.1.15,2013-09-17 01:24:00,
2013-09-16 21:30:00,78.4,74.2,30.07,SE,128,2.0,16.0,87,0.00,,,0.01,0,Wunderground v.1.15,2013-09-17 01:30:00,
2013-09-16 21:36:00,78.3,74.1,30.07,ESE,113,2.0,16.0,87,0.00,,,0.01,0,Wunderground v.1.15,2013-09-17 01:36:00,
2013-09-16 21:42:00,78.2,74.0,30.07,East,98,3.0,16.0,87,0.00,,,0.01,0,Wunderground v.1.15,2013-09-17 01:42:00,
2013-09-16 21:48:00,78.1,73.9,30.07,East,97,2.0,16.0,87,0.00,,,0.01,0,Wunderground v.1.15,2013-09-17 01:48:00,
2013-09-16 21:54:00,78.0,73.8,30.07,East,96,2.0,16.0,87,0.00,,,0.01,0,Wunderground v.1.15,2013-09-17 01:54:00,
2013-09-16 21:59:00,77.8,73.6,30.07,East,96,2.0,16.0,87,0.00,,,0.01,0,Wunderground v.1.15,2013-09-17 01:59:00,
2013-09-16 22:04:00,77.7,73.5,30.07,East,96,2.0,16.0,87,0.00,,,0.01,0,Wunderground v.1.15,2013-09-17 02:04:00,
2013-09-16 22:10:00,77.6,73.4,30.08,East,97,2.0,2.0,87,0.00,,,0.01,0,Wunderground v.1.15,2013-09-17 02:10:00,
2013-09-16 22:15:00,77.5,73.3,30.07,East,96,2.0,16.0,87,0.00,,,0.01,0,Wunderground v.1.15,2013-09-17 02:15:00,
2013-09-16 22:21:00,77.3,72.8,30.08,East,96,2.0,16.0,86,0.00,,,0.01,0,Wunderground v.1.15,2013-09-17 02:21:00,
2013-09-16 22:27:00,77.2,72.7,30.08,East,96,2.0,16.0,86,0.00,,,0.01,0,Wunderground v.1.15,2013-09-17 02:27:00,
2013-09-16 22:33:00,77.1,72.6,30.08,East,96,1.0,16.0,86,0.00,,,0.01,0,Wunderground v.1.15,2013-09-17 02:33:00,
2013-09-16 22:39:00,77.0,72.5,30.08,East,96,1.0,16.0,86,0.00,,,0.01,0,Wunderground v.1.15,2013-09-17 02:39:00,
2013-09-16 22:45:00,77.0,72.5,30.07,East,96,1.0,16.0,86,0.00,,,0.01,0,Wunderground v.1.15,2013-09-17 02:45:00,
2013-09-16 22:50:00,77.0,72.5,30.07,East,96,1.0,16.0,86,0.00,,,0.01,0,Wunderground v.1.15,2013-09-17 02:50:00,
2013-09-16 22:56:00,76.9,72.4,30.07,East,96,1.0,16.0,86,0.00,,,0.01,0,Wunderground v.1.15,2013-09-17 02:56:00,
2013-09-16 23:02:00,76.8,72.3,30.07,East,96,2.0,16.0,86,0.00,,,0.01,0,Wunderground v.1.15,2013-09-17 03:02:00,
2013-09-16 23:08:00,76.7,72.2,30.07,East,95,3.0,16.0,86,0.00,,,0.01,0,Wunderground v.1.15,2013-09-17 03:08:00,
2013-09-16 23:14:00,76.6,72.4,30.06,East,95,2.0,16.0,87,0.00,,,0.01,0,Wunderground v.1.15,2013-09-17 03:14:00,
2013-09-16 23:20:00,76.5,72.3,30.06,East,95,2.0,2.0,87,0.00,,,0.01,0,Wunderground v.1.15,2013-09-17 03:20:00,
2013-09-16 23:26:00,76.4,72.2,30.06,East,95,1.0,16.0,87,0.00,,,0.01,0,Wunderground v.1.15,2013-09-17 03:26:00,
2013-09-16 23:32:00,76.3,72.1,30.06,East,95,1.0,16.0,87,0.00,,,0.01,0,Wunderground v.1.15,2013-09-17 03:32:00,
2013-09-16 23:37:00,76.3,72.1,30.06,East,95,2.0,16.0,87,0.00,,,0.01,0,Wunderground v.1.15,2013-09-17 03:37:00,
2013-09-16 23:43:00,76.2,72.4,30.06,East,95,2.0,16.0,88,0.00,,,0.01,0,Wunderground v.1.15,2013-09-17 03:43:00,
2013-09-16 23:48:00,76.2,72.4,30.05,East,95,2.0,16.0,88,0.00,,,0.01,0,Wunderground v.1.15,2013-09-17 03:48:00,
2013-09-16 23:54:00,76.1,72.3,30.06,East,95,2.0,16.0,88,0.00,,,0.01,0,Wunderground v.1.15,2013-09-17 03:54:00,